Regional Weather Roundup
Issued by NWS

Home | Current Version | Previous Version | Graphics & Text | Print | Product List | Glossary On
Versions: 1 2 3 4 5 6 7 8 9 10 11 12 13 14 15 16 17 18 19 20 21 22 23 24 25 26 27 28 29 30 31 32 33 34 35 36 37 38 39 40 41 42 43 44 45 46 47 48 49 50
000
ASUS43 KMKX 091721
RWRWI

WISCONSIN REGIONAL WEATHER ROUNDUP
NATIONAL WEATHER SERVICE MILWAUKEE/SULLIVAN WI
1100 AM CST TUE FEB 09 2016

NOTE: "FAIR" INDICATES FEW OR NO CLOUDS BELOW 12,000 FEET WITH NO
SIGNIFICANT WEATHER AND/OR OBSTRUCTIONS TO VISIBILITY.

WIZ001-002-006>008-014>016-023>028-091800-
NORTHWEST WISCONSIN

CITY           SKY/WX    TMP DP  RH WIND       PRES   REMARKS
SUPERIOR ARPT  MOSUNNY    8  -3  63 NW9       30.12S WCI  -6
ASHLAND        LGT SNOW   9   3  77 NW13      30.04R WCI  -7
HAYWARD        PTSUNNY    7  -2  66 N13       30.01R WCI  -9
SIREN          SUNNY      8  -3  61 N12G21    30.09R WCI  -7
CUMBERLAND     SUNNY      5  -4  66 NW16      30.01R WCI -14
RICE LAKE      SUNNY      8  -4  58 NW9       30.04R WCI  -6
CHETEK         SUNNY      7  -4  60 N7        30.02S WCI  -5
LADYSMITH      CLOUDY     9   1  69 NW17      29.98R WCI -10
EAU CLAIRE     SUNNY      7  -4  60 NW15      30.03R WCI -10
MENOMONIE      SUNNY     10  -5  49 NW14      30.05R WCI  -5
NEW RICHMOND   SUNNY      8  -2  62 NW17      30.08S WCI -10
OSCEOLA        SUNNY      9  -1  64 NW16G22   30.13R WCI  -8
$$

WIZ003>005-009-010-017-018-091800-
NORTH CENTRAL WISCONSIN

CITY           SKY/WX    TMP DP  RH WIND       PRES   REMARKS
MANITOWISH WTR LGT SNOW  10   3  72 N16G26    29.85S WCI  -7
ARBOR VITAE    LGT SNOW  13   5  71 N21G31    29.84R WCI  -5
WOODRUFF       LGT SNOW  13   5  71 N21G31    29.84R WCI  -5
RHINELANDER    LGT SNOW  13   4  67 N12G25    29.82R WCI  -1
EAGLE RIVER    LGT SNOW  12   2  66 N16G29    29.81R WCI  -5
LAND O LAKES   LGT SNOW  11   5  76 N16G28    29.82R WCI  -5
PHILLIPS       CLOUDY     8   1  73 N15G23    29.89R WCI  -9
TOMAHAWK       CLOUDY    13   4  68 NW14G23   29.84S HAZE    WCI  -3
MEDFORD        CLOUDY    10   2  70 N16G25    29.86S HAZE    WCI  -7
MERRILL        CLOUDY    14   4  64 N18       29.84F WCI  -3
$$

WIZ029-030-035-036-043>047-091800-
CENTRAL WISCONSIN

CITY           SKY/WX    TMP DP  RH WIND       PRES   REMARKS
WAUSAU         CLOUDY    15   7  70 NW10G20   29.83S WCI   2
MOSINEE        LGT SNOW  10   7  85 NW12      29.85S WCI  -4
MARSHFIELD     PTSUNNY   10   0  63 NW17      29.87S WCI  -8
STEVENS POINT  CLOUDY    10   2  70 NW12G18   29.86S HAZE    WCI  -4
WAUPACA        PTSUNNY   18   8  63 NW13      29.86S HAZE    WCI   5
WAUTOMA        CLOUDY    13   2  61 NW14G21   29.88S WCI  -2
WISC RAPIDS    MOSUNNY   11   0  61 NW18G26   29.90S WCI  -7
CAMP DOUGLAS   CLOUDY    10   3  72 NW17      29.93S WCI  -7
$$

WIZ011>013-019>022-031-037>040-048>050-091800-
NORTHEAST WISCONSIN

CITY           SKY/WX    TMP DP  RH WIND       PRES   REMARKS
ANTIGO         CLOUDY    12   4  71 N17G25    29.80R HAZE    WCI  -5
SHAWANO        CLOUDY    19   6  57 N9        29.84S WCI   9
OCONTO         CLOUDY    17   4  56 NW13      29.82R WCI   4
STURGEON BAY   CLOUDY    16   5  62 NW15G23   29.80S WCI   1
GREEN BAY      MOSUNNY   17   6  62 N18       29.82S WCI   1
MANITOWOC      FLURRIES  18   9  68 NW16      29.80R WCI   3
APPLETON       PTSUNNY   16   7  67 NW15G21   29.81R WCI   1
CLINTONVILLE   CLOUDY    19   9  63 N10       29.84S WCI   8
OSHKOSH        CLOUDY    15   6  67 NW15      29.83S WCI   0
$$

WIZ032>034-041-042-053>061-091800-
SOUTHWEST WISCONSIN

CITY           SKY/WX    TMP DP  RH WIND       PRES   REMARKS
LA CROSSE      MOSUNNY   10  -1  61 NW20      30.03R WCI  -9
SPARTA         SUNNY     11   2  67 NW17      29.98F WCI  -6
VIROQUA        SUNNY      9   1  68 NW18      29.94R WCI -10
BOSCOBEL       MIX PCPN  14   2  58 N12       29.99R WCI   0
PRAIRIE DU CHI SUNNY     13   1  59 NW14      30.01S WCI  -2
PLATTEVILLE    MOSUNNY   11   5  74 NW17G24   29.93S WCI  -6
$$

WIZ056-057-062-063-064-067-068-091800-
SOUTH CENTRAL WISCONSIN

CITY           SKY/WX    TMP DP  RH WIND       PRES   REMARKS
REEDSBURG      CLOUDY    11   2  66 NW17G23   29.92S WCI  -6
BARABOO/DELLS  PTSUNNY   12   2  65 NW15G21   29.90R WCI  -4
LONE ROCK      CLOUDY    13   2  61 NW14G25   29.95R WCI  -2
MINERAL POINT  MOSUNNY   14   5  67 NW14      29.90S WCI  -1
MADISON        CLOUDY    12   3  67 NW16G24   29.88S WCI  -5
MIDDLETON      PTSUNNY   15   6  68 NW18      29.89S WCI  -2
WATERTOWN      MOSUNNY   14   6  70 NW14G22   29.85S WCI   0
MONROE         MOSUNNY   16   5  62 NW12G20   29.87S WCI   3
JANESVILLE     PTSUNNY   16   7  67 NW18G25   29.87R WCI  -1
$$

WIZ051-052-058>065-066-070>072-091800-
SOUTHEAST WISCONSIN

CITY           SKY/WX    TMP DP  RH WIND       PRES   REMARKS
MILWAUKEE      PTSUNNY   17   6  62 NW15      29.82S WCI   2
WAUKESHA       PTSUNNY   12   5  73 NW15G23   29.83R WCI  -4
MILWAUKEE/TIMM PTSUNNY   16   5  62 NW17G23   29.83R WCI   0
RACINE         CLOUDY    18   6  59 NW9       29.83R WCI   7
BURLINGTON     MOSUNNY   14   5  67 NW18      29.84R WCI  -3
KENOSHA        PTSUNNY   17   7  64 NW15      29.82R WCI   2
FOND DU LAC    SUNNY     15   7  70 NW15      29.83S WCI   0
SHEBOYGAN      CLOUDY    16   7  67 NW13      29.80S WCI   2
WEST BEND      PTSUNNY   16   7  67 NW14      29.81S WCI   1
JUNEAU         MOSUNNY   13   5  70 NW14G21   29.85R WCI  -2
$$

LSZ147-162-091800-
LAKE SUPERIOR

STATION/POSITION TIME  TEMP    WIND        PRES    WAVE
                       AIR SEA DIR/SP/G            HT/PER
                 (UTC) (F)     (DEG/KT/KT) (MB)    (FT/S)
DEVILS ISLAND    1700    8     340/ 19/ 24 1019.4R
SAXON HARBOR     1620   12                 1015.9R
$$

LMZ867-665-643>646-091800-
LAKE MICHIGAN

STATION/POSITION TIME  TEMP    WIND        PRES    WAVE
                       AIR SEA DIR/SP/G            HT/PER
                 (UTC) (F)     (DEG/KT/KT) (MB)    (FT/S)
CHAMBERS ISLAND  1600   17     300/ 19/ 24 1008.5R
ALGOMA LAKESHORE 1641          340/ 17/ 20   N/A
KEWAUNEE LAKESHO 1700   17     330/ 13/ 20 1008.3R
SHEBOYGAN LAKESH 1700   16     320/ 17/ 20 1010.6R
PORT WASHINGTON  1600   16     300/ 12/ 17 1010.5F
MILWAUKEE LAKESH 1710   17     310/ 13/ 18   N/A
KENOSHA   LAKESH 1700   17     330/ 13/ 20 1010.2R
$$

TC  - TEMPERATURE IN CELSIUS
VSB - VISIBILITY IN STATUTE MILES
WCI - WIND CHILL INDEX
HX  - HEAT INDEX





USA.gov is the U.S. government's official web portal to all federal, state and local government web resources and services.